Flag for Poland Weather past 2 weeks in Opole, Poland

Now
59 °F

Drizzle. More clouds than sun.


Feels Like: 58 °F
Forecast: 55 / 73 °F
Wind: 7 mph from Northeast

Location: Wroclaw Ii

Current Time: Sep 2, 2014 at 2:09:39 PM

Latest Report: Sep 2, 2014 at 1:30 PM


Visibility: 4 mi

Pressure: 30.09 "Hg

Humidity: 88%

Dew point: 55 °F

Location of OpoleLocation

Historic Weather in Opole — Graph

°F

Opole temperature yesterday

Maximum temperature yesterday: 63 °F (at 1:00 PM)
Minimum temperature yesterday: 59 °F (at 1:30 AM)
Average temperature yesterday: 60 °F

Past Weeks' High & Low Weather Summary

 TemperatureHumidityPressure
High79 °F (Aug 30, 1:00 PM)94% (Aug 21, 7:30 AM)30.09 "Hg (Aug 21, 7:30 AM)
Low45 °F (Aug 29, 5:00 AM)29% (Aug 22, 1:30 PM)29.74 "Hg (Aug 18, 2:30 PM)
Average61 °F73%29.96 "Hg
* Reported Aug 18 1:00 PM — Sep 2 1:00 PM, Opole, Weather by CustomWeather, © 2014

Note: Actual official high and low records may vary slightly from our data, if they occured in-between our weather recording intervals... More about our weather records

Advertising

Opole weather history for previous 24 hours

 ConditionsComfort  
Time TempWeatherWind HumidityBarometerVisibility
1:00 PM
Sep 2
59 °FLight rain. More clouds than sun.6 mph88%30.09 "HgN/A
12:30 PM59 °FLight rain. More clouds than sun.5 mph88%30.09 "HgN/A
12:00 PM59 °FLight rain. More clouds than sun.5 mph88%30.09 "HgN/A
11:30 AM59 °FLight rain. More clouds than sun.5 mph88%30.07 "HgN/A
11:00 AM57 °FLight rain. More clouds than sun.5 mph88%30.07 "HgN/A
10:30 AM57 °FLight rain. More clouds than sun.6 mph94%30.07 "HgN/A
10:00 AM57 °FLight rain. Mostly cloudy.8 mph94%30.07 "HgN/A
9:30 AM57 °FLight rain. Mostly cloudy.6 mph94%30.04 "HgN/A
9:00 AM57 °FLight rain. More clouds than sun.6 mph94%30.04 "HgN/A
8:30 AM57 °FLight rain. More clouds than sun.6 mph94%30.04 "HgN/A
8:00 AM57 °FLight rain. Low clouds.6 mph94%30.04 "HgN/A
7:30 AM59 °FLight rain. Low clouds.6 mph88%30.04 "HgN/A
7:00 AM59 °FLight rain. Passing clouds.7 mph88%30.04 "HgN/A
6:30 AM59 °FLight rain. Passing clouds.5 mph88%30.01 "Hg5 mi
6:00 AM59 °FRain. Passing clouds.6 mph88%30.01 "Hg5 mi
5:30 AM59 °FLight rain. Passing clouds.5 mph88%30.01 "Hg5 mi
5:00 AM59 °FLight rain. Partly cloudy.3 mph94%30.01 "Hg4 mi
4:30 AM59 °FLight rain. Fog.5 mph94%30.01 "Hg2 mi
4:00 AM59 °FLight rain. Fog.5 mph94%30.01 "Hg2 mi
3:30 AM59 °FLight rain. Fog.5 mph94%30.01 "Hg2 mi
3:00 AM59 °FLight rain. Fog.5 mph94%30.01 "Hg2 mi
2:30 AM59 °FRain. Fog.5 mph94%30.01 "Hg2 mi
2:00 AM59 °FLight rain. Fog.5 mph94%30.01 "Hg2 mi
1:30 AM59 °FRain. Fog.6 mph94%30.01 "Hg1 mi
1:00 AM59 °FLight rain. Fog.6 mph94%30.01 "Hg2 mi
12:30 AM59 °FLight rain. Fog.7 mph94%30.01 "Hg2 mi
12:00 AM61 °FLight rain. Fog.6 mph88%30.04 "Hg2 mi
11:30 PM
Sep 1
61 °FLight rain. Fog.6 mph88%30.04 "Hg2 mi
11:00 PM61 °FLight rain. Fog.6 mph88%30.04 "Hg2 mi
10:30 PM61 °FLight rain. Fog.6 mph88%30.04 "Hg2 mi
10:00 PM61 °FLight rain. Fog.6 mph88%30.04 "Hg2 mi
9:30 PM61 °FLight rain. Fog.6 mph88%30.04 "Hg2 mi
9:00 PM61 °FLight rain. Fog.6 mph88%30.04 "Hg2 mi
8:30 PM61 °FLight rain. Fog.7 mph88%30.01 "Hg2 mi
8:00 PM61 °FLight rain. Fog.7 mph88%30.01 "Hg2 mi
7:30 PM61 °FLight rain. Fog.8 mph88%30.01 "Hg2 mi
7:00 PM61 °FLight rain. Fog.9 mph88%30.01 "Hg2 mi
6:30 PM61 °FLight rain. Fog.9 mph94%30.01 "Hg2 mi
6:00 PM61 °FLight rain. Fog.10 mph94%30.01 "Hg2 mi
5:30 PM61 °FSprinkles. Fog.9 mph94%30.01 "Hg2 mi
5:00 PM63 °FSprinkles. Fog.9 mph88%30.01 "Hg2 mi
4:30 PM63 °FPartly sunny.10 mph88%30.01 "Hg5 mi
4:00 PM63 °FPartly sunny.10 mph88%30.01 "HgN/A
3:30 PM63 °FPartly sunny.10 mph94%30.01 "HgN/A
3:00 PM63 °FPartly sunny.9 mph88%30.01 "HgN/A
2:30 PM63 °FPartly sunny.8 mph88%30.01 "HgN/A
2:00 PM63 °FPartly sunny.8 mph88%30.01 "HgN/A
Weather by CustomWeather, © 2014

See weather overviewHow to use our weather pages